Time,TemperatureF,DewpointF,PressureIn,WindDirection,WindDirectionDegrees,WindSpeedMPH,WindSpeedGustMPH,Humidity,HourlyPrecipIn,Conditions,Clouds,dailyrainin,SoftwareType,DateUTC
2013-05-07 00:05:00,58.7,50.4,29.97,North,355,0.0,0.0,74,0.00,,,0.00,Wunderground v.1.15,2013-05-07 05:05:00,
2013-05-07 00:11:00,58.7,51.2,29.97,North,355,0.0,0.0,76,0.00,,,0.00,Wunderground v.1.15,2013-05-07 05:11:00,
2013-05-07 00:16:00,58.6,50.7,29.97,North,355,0.0,0.0,75,0.00,,,0.00,Wunderground v.1.15,2013-05-07 05:16:00,
2013-05-07 00:22:00,58.5,50.2,29.97,North,355,0.0,0.0,74,0.00,,,0.00,Wunderground v.1.15,2013-05-07 05:22:00,
2013-05-07 00:27:00,58.4,50.1,29.97,North,355,0.0,0.0,74,0.00,,,0.00,Wunderground v.1.15,2013-05-07 05:27:00,
2013-05-07 00:33:00,58.3,51.1,29.97,North,355,0.0,0.0,77,0.00,,,0.00,Wunderground v.1.15,2013-05-07 05:33:00,
2013-05-07 00:38:00,58.0,50.8,29.97,North,355,0.0,0.0,77,0.00,,,0.00,Wunderground v.1.15,2013-05-07 05:38:00,
2013-05-07 00:44:00,57.7,51.2,29.97,North,355,0.0,0.0,79,0.00,,,0.00,Wunderground v.1.15,2013-05-07 05:44:00,
2013-05-07 00:50:00,57.1,50.6,29.98,North,355,0.0,0.0,79,0.00,,,0.00,Wunderground v.1.15,2013-05-07 05:50:00,
2013-05-07 00:56:00,56.9,49.8,29.97,North,355,0.0,0.0,77,0.00,,,0.00,Wunderground v.1.15,2013-05-07 05:56:00,
2013-05-07 01:02:00,56.9,49.4,29.97,North,355,0.0,0.0,76,0.00,,,0.00,Wunderground v.1.15,2013-05-07 06:02:00,
2013-05-07 01:07:00,57.0,49.2,29.98,North,355,0.0,0.0,75,0.00,,,0.00,Wunderground v.1.15,2013-05-07 06:07:00,
2013-05-07 01:13:00,57.2,49.3,29.98,North,355,0.0,0.0,75,0.00,,,0.00,Wunderground v.1.15,2013-05-07 06:13:00,
2013-05-07 01:18:00,57.2,49.0,29.98,North,355,0.0,0.0,74,0.00,,,0.00,Wunderground v.1.15,2013-05-07 06:18:00,
2013-05-07 01:24:00,57.2,49.7,29.98,North,355,0.0,0.0,76,0.00,,,0.00,Wunderground v.1.15,2013-05-07 06:24:00,
2013-05-07 01:29:00,57.1,50.0,29.98,North,355,0.0,0.0,77,0.00,,,0.00,Wunderground v.1.15,2013-05-07 06:29:00,
2013-05-07 01:35:00,57.0,49.9,29.97,North,355,0.0,0.0,77,0.00,,,0.00,Wunderground v.1.15,2013-05-07 06:35:00,
2013-05-07 01:40:00,56.9,50.1,29.97,North,355,0.0,0.0,78,0.00,,,0.00,Wunderground v.1.15,2013-05-07 06:40:00,
2013-05-07 01:46:00,56.8,50.0,29.98,North,355,0.0,0.0,78,0.00,,,0.00,Wunderground v.1.15,2013-05-07 06:46:00,
2013-05-07 01:52:00,56.7,49.9,29.97,North,355,0.0,0.0,78,0.00,,,0.00,Wunderground v.1.15,2013-05-07 06:52:00,
2013-05-07 01:57:00,56.6,49.8,29.98,North,355,0.0,0.0,78,0.00,,,0.00,Wunderground v.1.15,2013-05-07 06:57:00,
2013-05-07 02:03:00,56.5,49.0,29.98,North,355,0.0,0.0,76,0.00,,,0.00,Wunderground v.1.15,2013-05-07 07:03:00,
2013-05-07 02:08:00,56.6,49.1,29.97,North,355,0.0,0.0,76,0.00,,,0.00,Wunderground v.1.15,2013-05-07 07:08:00,
2013-05-07 02:14:00,56.7,48.9,29.97,North,355,0.0,0.0,75,0.00,,,0.00,Wunderground v.1.15,2013-05-07 07:14:00,
2013-05-07 02:19:00,56.8,49.3,29.97,North,355,0.0,0.0,76,0.00,,,0.00,Wunderground v.1.15,2013-05-07 07:19:00,
2013-05-07 02:25:00,56.8,49.0,29.97,North,355,0.0,0.0,75,0.00,,,0.00,Wunderground v.1.15,2013-05-07 07:25:00,
2013-05-07 02:30:00,56.7,48.9,29.97,North,355,0.0,0.0,75,0.00,,,0.00,Wunderground v.1.15,2013-05-07 07:30:00,
2013-05-07 02:36:00,56.7,48.9,29.97,North,355,0.0,0.0,75,0.00,,,0.00,Wunderground v.1.15,2013-05-07 07:36:00,
2013-05-07 02:42:00,56.7,48.9,29.97,North,355,0.0,0.0,75,0.00,,,0.00,Wunderground v.1.15,2013-05-07 07:42:00,
2013-05-07 02:48:00,56.6,48.4,29.97,North,355,0.0,0.0,74,0.00,,,0.00,Wunderground v.1.15,2013-05-07 07:48:00,
2013-05-07 02:54:00,56.6,48.0,29.97,North,355,0.0,0.0,73,0.00,,,0.00,Wunderground v.1.15,2013-05-07 07:54:00,
2013-05-07 02:59:00,56.7,48.5,29.97,North,355,0.0,0.0,74,0.00,,,0.00,Wunderground v.1.15,2013-05-07 07:59:00,
2013-05-07 03:05:00,56.6,49.8,29.97,North,355,0.0,0.0,78,0.00,,,0.00,Wunderground v.1.15,2013-05-07 08:05:00,
2013-05-07 03:10:00,56.3,49.9,29.98,North,355,0.0,0.0,79,0.00,,,0.00,Wunderground v.1.15,2013-05-07 08:10:00,
2013-05-07 03:16:00,56.1,49.7,29.97,North,355,0.0,0.0,79,0.00,,,0.00,Wunderground v.1.15,2013-05-07 08:16:00,
2013-05-07 03:21:00,55.9,49.5,29.98,North,355,0.0,0.0,79,0.00,,,0.00,Wunderground v.1.15,2013-05-07 08:21:00,
2013-05-07 03:27:00,55.8,49.7,29.97,North,355,0.0,0.0,80,0.00,,,0.00,Wunderground v.1.15,2013-05-07 08:27:00,
2013-05-07 03:32:00,55.6,49.5,29.98,North,355,0.0,0.0,80,0.00,,,0.00,Wunderground v.1.15,2013-05-07 08:32:00,
2013-05-07 03:38:00,55.5,49.1,29.97,North,355,0.0,0.0,79,0.00,,,0.00,Wunderground v.1.15,2013-05-07 08:38:00,
2013-05-07 03:44:00,55.6,49.9,29.98,North,355,0.0,0.0,81,0.00,,,0.00,Wunderground v.1.15,2013-05-07 08:44:00,
2013-05-07 03:49:00,55.6,49.9,29.98,North,355,0.0,0.0,81,0.00,,,0.00,Wunderground v.1.15,2013-05-07 08:49:00,
2013-05-07 03:55:00,55.6,49.5,29.98,North,355,0.0,0.0,80,0.00,,,0.00,Wunderground v.1.15,2013-05-07 08:55:00,
2013-05-07 04:02:00,55.6,49.5,29.98,North,355,0.0,0.0,80,0.00,,,0.00,Wunderground v.1.15,2013-05-07 09:02:00,
2013-05-07 04:07:00,55.5,49.8,29.98,North,355,0.0,0.0,81,0.00,,,0.00,Wunderground v.1.15,2013-05-07 09:07:00,
2013-05-07 04:12:00,55.4,50.0,29.98,North,355,0.0,0.0,82,0.00,,,0.00,Wunderground v.1.15,2013-05-07 09:12:00,
2013-05-07 04:18:00,55.2,49.8,29.98,North,355,0.0,0.0,82,0.00,,,0.00,Wunderground v.1.15,2013-05-07 09:18:00,
2013-05-07 04:24:00,55.0,49.6,29.98,North,355,0.0,0.0,82,0.00,,,0.00,Wunderground v.1.15,2013-05-07 09:24:00,
2013-05-07 04:29:00,54.9,49.5,29.98,North,355,0.0,0.0,82,0.00,,,0.00,Wunderground v.1.15,2013-05-07 09:29:00,
2013-05-07 04:35:00,54.8,49.4,29.98,North,355,0.0,0.0,82,0.00,,,0.00,Wunderground v.1.15,2013-05-07 09:35:00,
2013-05-07 04:40:00,54.9,49.8,29.98,North,355,0.0,0.0,83,0.00,,,0.00,Wunderground v.1.15,2013-05-07 09:40:00,
2013-05-07 04:46:00,54.9,49.8,29.98,North,355,0.0,0.0,83,0.00,,,0.00,Wunderground v.1.15,2013-05-07 09:46:00,
2013-05-07 04:51:00,54.9,49.8,29.99,North,355,0.0,0.0,83,0.00,,,0.00,Wunderground v.1.15,2013-05-07 09:51:00,
2013-05-07 04:57:00,54.8,49.4,29.99,North,355,0.0,0.0,82,0.00,,,0.00,Wunderground v.1.15,2013-05-07 09:57:00,
2013-05-07 05:02:00,54.8,49.4,29.99,North,355,0.0,0.0,82,0.00,,,0.00,Wunderground v.1.15,2013-05-07 10:02:00,
2013-05-07 05:08:00,54.7,49.3,29.98,North,355,0.0,0.0,82,0.00,,,0.00,Wunderground v.1.15,2013-05-07 10:08:00,
2013-05-07 05:14:00,54.6,49.5,29.98,North,355,0.0,0.0,83,0.00,,,0.00,Wunderground v.1.15,2013-05-07 10:14:00,
2013-05-07 05:19:00,54.4,49.0,29.98,North,355,0.0,0.0,82,0.00,,,0.00,Wunderground v.1.15,2013-05-07 10:19:00,
2013-05-07 05:25:00,54.3,48.9,29.98,North,355,0.0,0.0,82,0.00,,,0.00,Wunderground v.1.15,2013-05-07 10:25:00,
2013-05-07 05:30:00,54.2,49.1,29.99,North,355,0.0,0.0,83,0.00,,,0.00,Wunderground v.1.15,2013-05-07 10:30:00,
2013-05-07 05:36:00,54.2,49.1,29.99,North,355,0.0,0.0,83,0.00,,,0.00,Wunderground v.1.15,2013-05-07 10:36:00,
2013-05-07 05:41:00,54.1,49.1,29.99,North,355,0.0,0.0,83,0.00,,,0.00,Wunderground v.1.15,2013-05-07 10:41:00,
2013-05-07 05:47:00,53.9,48.9,29.99,North,355,0.0,0.0,83,0.00,,,0.00,Wunderground v.1.15,2013-05-07 10:47:00,
2013-05-07 05:52:00,53.8,48.8,29.99,North,355,0.0,0.0,83,0.00,,,0.00,Wunderground v.1.15,2013-05-07 10:52:00,
2013-05-07 05:58:00,53.8,48.8,30.00,North,355,0.0,0.0,83,0.00,,,0.00,Wunderground v.1.15,2013-05-07 10:58:00,
2013-05-07 06:04:00,54.0,49.3,29.99,North,355,0.0,0.0,84,0.00,,,0.00,Wunderground v.1.15,2013-05-07 11:04:00,
2013-05-07 06:09:00,54.0,49.6,30.00,North,355,0.0,0.0,85,0.00,,,0.00,Wunderground v.1.15,2013-05-07 11:09:00,
2013-05-07 06:15:00,54.1,49.7,30.00,North,355,0.0,0.0,85,0.00,,,0.00,Wunderground v.1.15,2013-05-07 11:15:00,
2013-05-07 06:20:00,54.1,49.7,30.00,North,355,0.0,0.0,85,0.00,,,0.00,Wunderground v.1.15,2013-05-07 11:20:00,
2013-05-07 06:26:00,54.2,49.8,30.00,North,355,0.0,0.0,85,0.00,,,0.00,Wunderground v.1.15,2013-05-07 11:26:00,
2013-05-07 06:31:00,54.2,49.5,30.00,North,355,0.0,0.0,84,0.00,,,0.00,Wunderground v.1.15,2013-05-07 11:31:00,
2013-05-07 06:37:00,54.3,49.9,30.00,North,355,0.0,0.0,85,0.00,,,0.00,Wunderground v.1.15,2013-05-07 11:37:00,
2013-05-07 06:42:00,54.4,50.0,30.00,North,355,0.0,0.0,85,0.00,,,0.00,Wunderground v.1.15,2013-05-07 11:42:00,
2013-05-07 06:48:00,54.5,50.1,30.00,North,355,0.0,0.0,85,0.00,,,0.00,Wunderground v.1.15,2013-05-07 11:48:00,
2013-05-07 06:53:00,54.5,50.4,30.00,North,355,0.0,0.0,86,0.00,,,0.00,Wunderground v.1.15,2013-05-07 11:53:00,
2013-05-07 06:59:00,54.6,50.5,30.00,North,355,0.0,0.0,86,0.00,,,0.00,Wunderground v.1.15,2013-05-07 11:59:00,
2013-05-07 07:05:00,54.7,50.6,30.00,North,355,0.0,0.0,86,0.00,,,0.00,Wunderground v.1.15,2013-05-07 12:05:00,
2013-05-07 07:10:00,54.7,50.6,30.00,North,355,0.0,0.0,86,0.00,,,0.00,Wunderground v.1.15,2013-05-07 12:10:00,
2013-05-07 07:16:00,54.9,50.8,30.00,North,355,0.0,0.0,86,0.00,,,0.00,Wunderground v.1.15,2013-05-07 12:16:00,
2013-05-07 07:21:00,55.1,51.0,30.00,North,355,0.0,0.0,86,0.00,,,0.00,Wunderground v.1.15,2013-05-07 12:21:00,
2013-05-07 07:27:00,55.5,50.7,30.00,North,355,0.0,0.0,84,0.00,,,0.00,Wunderground v.1.15,2013-05-07 12:27:00,
2013-05-07 07:32:00,55.8,50.7,30.01,North,355,0.0,0.0,83,0.00,,,0.00,Wunderground v.1.15,2013-05-07 12:32:00,
2013-05-07 07:38:00,56.2,50.8,30.01,North,355,0.0,0.0,82,0.00,,,0.00,Wunderground v.1.15,2013-05-07 12:38:00,
2013-05-07 07:43:00,56.6,50.5,30.01,North,355,0.0,0.0,80,0.00,,,0.00,Wunderground v.1.15,2013-05-07 12:43:00,
2013-05-07 07:49:00,57.2,50.4,30.00,North,355,0.0,0.0,78,0.00,,,0.00,Wunderground v.1.15,2013-05-07 12:49:00,
2013-05-07 07:54:00,57.7,50.5,30.01,North,355,0.0,1.0,77,0.00,,,0.00,Wunderground v.1.15,2013-05-07 12:54:00,
2013-05-07 08:02:00,58.3,50.0,30.01,North,355,0.0,0.0,74,0.00,,,0.00,Wunderground v.1.15,2013-05-07 13:02:00,
2013-05-07 08:07:00,58.7,49.7,30.01,North,355,0.0,1.0,72,0.00,,,0.00,Wunderground v.1.15,2013-05-07 13:07:00,
2013-05-07 08:12:00,59.2,50.5,30.01,North,355,0.0,0.0,73,0.00,,,0.00,Wunderground v.1.15,2013-05-07 13:12:00,
2013-05-07 08:18:00,59.6,50.6,30.01,North,355,0.0,2.0,72,0.00,,,0.00,Wunderground v.1.15,2013-05-07 13:18:00,
2013-05-07 08:23:00,59.8,49.2,30.01,North,355,0.0,0.0,68,0.00,,,0.00,Wunderground v.1.15,2013-05-07 13:23:00,
2013-05-07 08:29:00,60.2,50.8,30.01,North,355,0.0,1.0,71,0.00,,,0.00,Wunderground v.1.15,2013-05-07 13:29:00,
2013-05-07 08:34:00,60.5,49.5,30.01,North,355,0.0,2.0,67,0.00,,,0.00,Wunderground v.1.15,2013-05-07 13:34:00,
2013-05-07 08:40:00,60.8,49.8,30.01,North,355,1.0,2.0,67,0.00,,,0.00,Wunderground v.1.15,2013-05-07 13:40:00,
2013-05-07 08:45:00,61.2,48.5,30.01,North,355,1.0,1.0,63,0.00,,,0.00,Wunderground v.1.15,2013-05-07 13:45:00,
2013-05-07 08:51:00,61.7,49.0,30.02,North,355,0.0,0.0,63,0.00,,,0.00,Wunderground v.1.15,2013-05-07 13:51:00,
2013-05-07 08:57:00,62.3,48.7,30.02,North,355,0.0,1.0,61,0.00,,,0.00,Wunderground v.1.15,2013-05-07 13:57:00,
2013-05-07 09:02:00,62.9,47.0,30.02,North,355,0.0,0.0,56,0.00,,,0.00,Wunderground v.1.15,2013-05-07 14:02:00,
2013-05-07 09:08:00,63.7,48.2,30.02,North,355,0.0,0.0,57,0.00,,,0.00,Wunderground v.1.15,2013-05-07 14:08:00,
2013-05-07 09:13:00,64.4,48.4,30.01,North,355,0.0,0.0,56,0.00,,,0.00,Wunderground v.1.15,2013-05-07 14:13:00,
2013-05-07 09:19:00,65.1,48.5,30.02,North,355,0.0,1.0,55,0.00,,,0.00,Wunderground v.1.15,2013-05-07 14:19:00,
2013-05-07 09:25:00,65.9,46.2,30.01,North,355,0.0,2.0,49,0.00,,,0.00,Wunderground v.1.15,2013-05-07 14:25:00,
2013-05-07 09:30:00,66.4,44.4,30.01,North,355,0.0,2.0,45,0.00,,,0.00,Wunderground v.1.15,2013-05-07 14:30:00,
2013-05-07 09:35:00,67.0,46.1,30.01,North,355,0.0,2.0,47,0.00,,,0.00,Wunderground v.1.15,2013-05-07 14:35:00,
2013-05-07 09:41:00,67.7,45.0,30.01,North,355,0.0,0.0,44,0.00,,,0.00,Wunderground v.1.15,2013-05-07 14:41:00,
2013-05-07 09:47:00,68.3,46.7,30.00,North,355,0.0,1.0,46,0.00,,,0.00,Wunderground v.1.15,2013-05-07 14:47:00,
2013-05-07 09:52:00,68.9,44.2,30.01,North,355,0.0,1.0,41,0.00,,,0.00,Wunderground v.1.15,2013-05-07 14:52:00,
2013-05-07 09:58:00,69.4,45.9,30.01,North,355,1.0,2.0,43,0.00,,,0.00,Wunderground v.1.15,2013-05-07 14:58:00,
2013-05-07 10:03:00,70.0,42.5,30.01,North,355,1.0,1.0,37,0.00,,,0.00,Wunderground v.1.15,2013-05-07 15:03:00,
2013-05-07 10:09:00,70.8,41.8,30.01,North,355,0.0,1.0,35,0.00,,,0.00,Wunderground v.1.15,2013-05-07 15:09:00,
2013-05-07 10:15:00,71.3,40.7,30.01,North,5,0.0,2.0,33,0.00,,,0.00,Wunderground v.1.15,2013-05-07 15:15:00,
2013-05-07 10:21:00,71.3,39.9,30.01,NNE,12,1.0,1.0,32,0.00,,,0.00,Wunderground v.1.15,2013-05-07 15:21:00,
2013-05-07 10:27:00,71.6,43.2,30.00,NNW,348,1.0,4.0,36,0.00,,,0.00,Wunderground v.1.15,2013-05-07 15:27:00,
2013-05-07 10:32:00,71.8,42.7,30.01,North,360,2.0,2.0,35,0.00,,,0.00,Wunderground v.1.15,2013-05-07 15:32:00,
2013-05-07 10:38:00,72.0,43.6,30.00,North,360,1.0,3.0,36,0.00,,,0.00,Wunderground v.1.15,2013-05-07 15:38:00,
2013-05-07 10:43:00,72.3,44.6,30.00,North,350,1.0,6.0,37,0.00,,,0.00,Wunderground v.1.15,2013-05-07 15:43:00,
2013-05-07 10:49:00,72.2,42.3,30.00,North,350,2.0,6.0,34,0.00,,,0.00,Wunderground v.1.15,2013-05-07 15:49:00,
2013-05-07 10:55:00,72.4,43.2,30.00,North,360,2.0,6.0,35,0.00,,,0.00,Wunderground v.1.15,2013-05-07 15:55:00,
2013-05-07 11:02:00,72.5,42.5,30.00,North,355,2.0,2.0,34,0.00,,,0.00,Wunderground v.1.15,2013-05-07 16:02:00,
2013-05-07 11:07:00,73.0,45.2,29.99,NNE,18,2.0,5.0,37,0.00,,,0.00,Wunderground v.1.15,2013-05-07 16:07:00,
2013-05-07 11:12:00,73.3,40.8,30.00,NNE,32,3.0,3.0,31,0.00,,,0.00,Wunderground v.1.15,2013-05-07 16:12:00,
2013-05-07 11:18:00,73.6,45.0,30.00,NE,36,1.0,3.0,36,0.00,,,0.00,Wunderground v.1.15,2013-05-07 16:18:00,
2013-05-07 11:23:00,73.6,42.7,30.00,NE,40,2.0,4.0,33,0.00,,,0.00,Wunderground v.1.15,2013-05-07 16:23:00,
2013-05-07 11:29:00,73.5,42.6,30.00,North,350,3.0,7.0,33,0.00,,,0.00,Wunderground v.1.15,2013-05-07 16:29:00,
2013-05-07 11:35:00,73.8,43.7,30.00,NE,40,3.0,5.0,34,0.00,,,0.00,Wunderground v.1.15,2013-05-07 16:35:00,
2013-05-07 11:40:00,74.0,39.7,29.99,NE,35,3.0,6.0,29,0.00,,,0.00,Wunderground v.1.15,2013-05-07 16:40:00,
2013-05-07 11:46:00,74.3,43.3,29.99,NNW,336,3.0,7.0,33,0.00,,,0.00,Wunderground v.1.15,2013-05-07 16:46:00,
2013-05-07 11:51:00,74.8,40.4,29.99,NE,51,3.0,3.0,29,0.00,,,0.00,Wunderground v.1.15,2013-05-07 16:51:00,
2013-05-07 11:57:00,74.9,42.2,29.99,ENE,58,3.0,4.0,31,0.00,,,0.00,Wunderground v.1.15,2013-05-07 16:57:00,
2013-05-07 12:03:00,74.7,41.2,29.99,NNE,30,3.0,6.0,30,0.00,,,0.00,Wunderground v.1.15,2013-05-07 17:03:00,
2013-05-07 12:09:00,74.3,41.7,29.99,NNW,346,4.0,7.0,31,0.00,,,0.00,Wunderground v.1.15,2013-05-07 17:09:00,
2013-05-07 12:15:00,74.3,41.7,29.98,NNW,336,3.0,4.0,31,0.00,,,0.00,Wunderground v.1.15,2013-05-07 17:15:00,
2013-05-07 12:20:00,74.7,40.3,29.98,WNW,302,2.0,4.0,29,0.00,,,0.00,Wunderground v.1.15,2013-05-07 17:20:00,
2013-05-07 12:26:00,75.2,41.6,29.98,ENE,75,3.0,5.0,30,0.00,,,0.00,Wunderground v.1.15,2013-05-07 17:26:00,
2013-05-07 12:31:00,75.3,40.8,29.98,NNW,333,3.0,5.0,29,0.00,,,0.00,Wunderground v.1.15,2013-05-07 17:31:00,
2013-05-07 12:37:00,75.4,43.5,29.98,North,360,4.0,8.0,32,0.00,,,0.00,Wunderground v.1.15,2013-05-07 17:37:00,
2013-05-07 12:42:00,75.6,42.8,29.98,NW,309,4.0,6.0,31,0.00,,,0.00,Wunderground v.1.15,2013-05-07 17:42:00,
2013-05-07 12:48:00,75.5,41.0,29.98,NW,313,4.0,8.0,29,0.00,,,0.00,Wunderground v.1.15,2013-05-07 17:48:00,
2013-05-07 12:53:00,75.7,43.7,29.98,NNE,16,4.0,9.0,32,0.00,,,0.00,Wunderground v.1.15,2013-05-07 17:53:00,
2013-05-07 12:59:00,75.7,40.3,29.97,NNW,340,4.0,9.0,28,0.00,,,0.00,Wunderground v.1.15,2013-05-07 17:59:00,
2013-05-07 13:05:00,75.9,49.2,29.97,NNE,19,3.0,5.0,39,0.00,,,0.00,Wunderground v.1.15,2013-05-07 18:05:00,
2013-05-07 13:10:00,76.5,44.4,29.97,North,350,4.0,10.0,32,0.00,,,0.00,Wunderground v.1.15,2013-05-07 18:10:00,
2013-05-07 13:16:00,76.2,42.5,29.97,North,10,5.0,7.0,30,0.00,,,0.00,Wunderground v.1.15,2013-05-07 18:16:00,
2013-05-07 13:21:00,76.3,43.4,29.97,NNE,30,5.0,7.0,31,0.00,,,0.00,Wunderground v.1.15,2013-05-07 18:21:00,
2013-05-07 13:27:00,76.5,42.7,29.97,North,355,5.0,9.0,30,0.00,,,0.00,Wunderground v.1.15,2013-05-07 18:27:00,
2013-05-07 13:32:00,76.5,40.0,29.97,North,5,5.0,5.0,27,0.00,,,0.00,Wunderground v.1.15,2013-05-07 18:32:00,
2013-05-07 13:38:00,76.2,45.0,29.97,NNW,347,4.0,8.0,33,0.00,,,0.00,Wunderground v.1.15,2013-05-07 18:38:00,
2013-05-07 13:43:00,76.1,38.7,29.97,NW,319,4.0,4.0,26,0.00,,,0.00,Wunderground v.1.15,2013-05-07 18:43:00,
2013-05-07 13:49:00,76.1,41.5,29.96,North,351,1.0,5.0,29,0.00,,,0.00,Wunderground v.1.15,2013-05-07 18:49:00,
2013-05-07 13:55:00,76.0,40.5,29.96,North,360,3.0,6.0,28,0.00,,,0.00,Wunderground v.1.15,2013-05-07 18:55:00,
2013-05-07 14:02:00,76.0,38.6,29.96,NNW,346,3.0,3.0,26,0.00,,,0.00,Wunderground v.1.15,2013-05-07 19:02:00,
2013-05-07 14:07:00,76.4,40.9,29.96,NNW,346,1.0,3.0,28,0.00,,,0.00,Wunderground v.1.15,2013-05-07 19:07:00,
2013-05-07 14:13:00,76.8,36.2,29.96,WNW,290,3.0,7.0,23,0.00,,,0.00,Wunderground v.1.15,2013-05-07 19:13:00,
2013-05-07 14:19:00,77.0,37.4,29.95,West,259,3.0,7.0,24,0.00,,,0.00,Wunderground v.1.15,2013-05-07 19:19:00,
2013-05-07 14:25:00,77.2,35.4,29.95,WSW,246,1.0,3.0,22,0.00,,,0.00,Wunderground v.1.15,2013-05-07 19:25:00,
2013-05-07 14:30:00,77.6,39.0,29.95,WSW,253,1.0,3.0,25,0.00,,,0.00,Wunderground v.1.15,2013-05-07 19:30:00,
2013-05-07 14:36:00,78.0,40.3,29.95,NNE,26,2.0,4.0,26,0.00,,,0.00,Wunderground v.1.15,2013-05-07 19:36:00,
2013-05-07 14:41:00,77.9,41.2,29.95,NNE,22,2.0,2.0,27,0.00,,,0.00,Wunderground v.1.15,2013-05-07 19:41:00,
2013-05-07 14:47:00,77.9,43.1,29.95,NNE,26,2.0,6.0,29,0.00,,,0.00,Wunderground v.1.15,2013-05-07 19:47:00,
2013-05-07 14:52:00,77.8,40.2,29.95,NE,36,2.0,3.0,26,0.00,,,0.00,Wunderground v.1.15,2013-05-07 19:52:00,
2013-05-07 14:58:00,77.7,43.8,29.94,North,355,2.0,7.0,30,0.00,,,0.00,Wunderground v.1.15,2013-05-07 19:58:00,
2013-05-07 15:04:00,78.0,42.2,29.95,WNW,299,2.0,7.0,28,0.00,,,0.00,Wunderground v.1.15,2013-05-07 20:04:00,
2013-05-07 15:09:00,78.1,40.4,29.94,WNW,295,4.0,7.0,26,0.00,,,0.00,Wunderground v.1.15,2013-05-07 20:09:00,
2013-05-07 15:15:00,78.0,41.3,29.94,North,351,5.0,8.0,27,0.00,,,0.00,Wunderground v.1.15,2013-05-07 20:15:00,
2013-05-07 15:20:00,77.6,45.4,29.94,NNW,342,5.0,8.0,32,0.00,,,0.00,Wunderground v.1.15,2013-05-07 20:20:00,
2013-05-07 15:26:00,77.3,37.7,29.94,South,186,3.0,7.0,24,0.00,,,0.00,Wunderground v.1.15,2013-05-07 20:26:00,
2013-05-07 15:31:00,77.2,42.5,29.94,South,185,1.0,7.0,29,0.00,,,0.00,Wunderground v.1.15,2013-05-07 20:31:00,
2013-05-07 15:37:00,77.3,40.7,29.94,NW,319,1.0,2.0,27,0.00,,,0.00,Wunderground v.1.15,2013-05-07 20:37:00,
2013-05-07 15:42:00,77.5,42.7,29.94,WNW,290,2.0,5.0,29,0.00,,,0.00,Wunderground v.1.15,2013-05-07 20:42:00,
2013-05-07 15:48:00,77.5,40.9,29.94,NW,309,3.0,5.0,27,0.00,,,0.00,Wunderground v.1.15,2013-05-07 20:48:00,
2013-05-07 15:53:00,77.5,40.9,29.94,NNW,336,3.0,6.0,27,0.00,,,0.00,Wunderground v.1.15,2013-05-07 20:53:00,
2013-05-07 15:59:00,77.6,43.7,29.94,NNW,344,3.0,6.0,30,0.00,,,0.00,Wunderground v.1.15,2013-05-07 20:59:00,
2013-05-07 16:05:00,77.8,41.1,29.93,NNW,342,4.0,9.0,27,0.00,,,0.00,Wunderground v.1.15,2013-05-07 21:05:00,
2013-05-07 16:10:00,77.7,39.1,29.93,North,355,5.0,9.0,25,0.00,,,0.00,Wunderground v.1.15,2013-05-07 21:10:00,
2013-05-07 16:16:00,77.6,42.8,29.93,North,355,2.0,5.0,29,0.00,,,0.00,Wunderground v.1.15,2013-05-07 21:16:00,
2013-05-07 16:21:00,77.7,43.8,29.93,North,355,1.0,1.0,30,0.00,,,0.00,Wunderground v.1.15,2013-05-07 21:21:00,
2013-05-07 16:27:00,77.7,42.0,29.93,WNW,302,2.0,7.0,28,0.00,,,0.00,Wunderground v.1.15,2013-05-07 21:27:00,
2013-05-07 16:32:00,77.6,40.0,29.93,WNW,296,5.0,5.0,26,0.00,,,0.00,Wunderground v.1.15,2013-05-07 21:32:00,
2013-05-07 16:38:00,77.6,41.0,29.93,West,279,6.0,9.0,27,0.00,,,0.00,Wunderground v.1.15,2013-05-07 21:38:00,
2013-05-07 16:43:00,77.6,41.0,29.93,WNW,283,6.0,9.0,27,0.00,,,0.00,Wunderground v.1.15,2013-05-07 21:43:00,
2013-05-07 16:49:00,77.7,42.0,29.93,NW,306,6.0,9.0,28,0.00,,,0.00,Wunderground v.1.15,2013-05-07 21:49:00,
2013-05-07 16:54:00,77.6,40.0,29.93,NW,311,6.0,8.0,26,0.00,,,0.00,Wunderground v.1.15,2013-05-07 21:54:00,
2013-05-07 17:02:00,77.8,39.1,29.93,NW,309,6.0,6.0,25,0.00,,,0.00,Wunderground v.1.15,2013-05-07 22:02:00,
2013-05-07 17:07:00,77.8,40.2,29.93,NW,319,5.0,7.0,26,0.00,,,0.00,Wunderground v.1.15,2013-05-07 22:07:00,
2013-05-07 17:12:00,77.8,38.1,29.93,WNW,283,5.0,6.0,24,0.00,,,0.00,Wunderground v.1.15,2013-05-07 22:12:00,
2013-05-07 17:18:00,78.0,39.3,29.93,WNW,285,4.0,6.0,25,0.00,,,0.00,Wunderground v.1.15,2013-05-07 22:18:00,
2013-05-07 17:23:00,78.2,38.4,29.93,NW,313,4.0,6.0,24,0.00,,,0.00,Wunderground v.1.15,2013-05-07 22:23:00,
2013-05-07 17:29:00,78.2,38.4,29.93,WNW,292,5.0,6.0,24,0.00,,,0.00,Wunderground v.1.15,2013-05-07 22:29:00,
2013-05-07 17:34:00,78.1,38.4,29.93,NNW,342,4.0,8.0,24,0.00,,,0.00,Wunderground v.1.15,2013-05-07 22:34:00,
2013-05-07 17:40:00,78.1,38.4,29.93,NW,319,4.0,8.0,24,0.00,,,0.00,Wunderground v.1.15,2013-05-07 22:40:00,
2013-05-07 17:46:00,78.2,37.4,29.93,NW,317,4.0,7.0,23,0.00,,,0.00,Wunderground v.1.15,2013-05-07 22:46:00,
2013-05-07 17:51:00,78.2,38.4,29.93,WNW,291,4.0,4.0,24,0.00,,,0.00,Wunderground v.1.15,2013-05-07 22:51:00,
2013-05-07 17:57:00,78.1,39.4,29.93,WNW,291,2.0,4.0,25,0.00,,,0.00,Wunderground v.1.15,2013-05-07 22:57:00,
2013-05-07 18:02:00,78.1,39.4,29.93,NW,313,2.0,2.0,25,0.00,,,0.00,Wunderground v.1.15,2013-05-07 23:02:00,
2013-05-07 18:08:00,78.2,43.3,29.93,NW,313,2.0,5.0,29,0.00,,,0.00,Wunderground v.1.15,2013-05-07 23:08:00,
2013-05-07 18:13:00,78.2,38.4,29.93,NW,310,2.0,2.0,24,0.00,,,0.00,Wunderground v.1.15,2013-05-07 23:13:00,
2013-05-07 18:19:00,78.2,41.5,29.93,NW,306,2.0,6.0,27,0.00,,,0.00,Wunderground v.1.15,2013-05-07 23:19:00,
2013-05-07 18:24:00,78.0,40.3,29.93,NNW,328,3.0,5.0,26,0.00,,,0.00,Wunderground v.1.15,2013-05-07 23:24:00,
2013-05-07 18:30:00,77.9,38.2,29.93,NNW,328,2.0,5.0,24,0.00,,,0.00,Wunderground v.1.15,2013-05-07 23:30:00,
2013-05-07 18:36:00,78.1,37.3,29.93,NNW,328,1.0,2.0,23,0.00,,,0.00,Wunderground v.1.15,2013-05-07 23:36:00,
2013-05-07 18:41:00,78.1,39.4,29.93,WNW,302,1.0,1.0,25,0.00,,,0.00,Wunderground v.1.15,2013-05-07 23:41:00,
2013-05-07 18:47:00,77.9,39.2,29.93,WNW,302,2.0,2.0,25,0.00,,,0.00,Wunderground v.1.15,2013-05-07 23:47:00,
2013-05-07 18:52:00,77.9,39.2,29.93,WNW,302,1.0,1.0,25,0.00,,,0.00,Wunderground v.1.15,2013-05-07 23:52:00,
2013-05-07 18:58:00,78.1,40.4,29.93,WNW,302,0.0,2.0,26,0.00,,,0.00,Wunderground v.1.15,2013-05-07 23:58:00,
2013-05-07 19:04:00,78.0,40.3,29.93,WNW,302,0.0,1.0,26,0.00,,,0.00,Wunderground v.1.15,2013-05-08 00:04:00,
2013-05-07 19:10:00,77.7,41.0,29.93,WNW,302,1.0,4.0,27,0.00,,,0.00,Wunderground v.1.15,2013-05-08 00:10:00,
2013-05-07 19:16:00,77.3,40.7,29.93,WNW,302,2.0,4.0,27,0.00,,,0.00,Wunderground v.1.15,2013-05-08 00:16:00,
2013-05-07 19:21:00,77.0,41.4,29.93,WNW,302,1.0,1.0,28,0.00,,,0.00,Wunderground v.1.15,2013-05-08 00:21:00,
2013-05-07 19:27:00,76.7,42.9,29.93,WNW,302,0.0,1.0,30,0.00,,,0.00,Wunderground v.1.15,2013-05-08 00:27:00,
2013-05-07 19:32:00,76.2,43.3,29.93,WNW,302,0.0,0.0,31,0.00,,,0.00,Wunderground v.1.15,2013-05-08 00:32:00,
2013-05-07 19:38:00,75.5,42.7,29.93,WNW,302,0.0,1.0,31,0.00,,,0.00,Wunderground v.1.15,2013-05-08 00:38:00,
2013-05-07 19:43:00,74.9,43.0,29.93,WNW,302,0.0,0.0,32,0.00,,,0.00,Wunderground v.1.15,2013-05-08 00:43:00,
2013-05-07 19:49:00,74.3,44.1,29.93,WNW,302,0.0,0.0,34,0.00,,,0.00,Wunderground v.1.15,2013-05-08 00:49:00,
2013-05-07 19:54:00,73.7,42.0,29.93,WNW,302,0.0,0.0,32,0.00,,,0.00,Wunderground v.1.15,2013-05-08 00:54:00,
2013-05-07 20:02:00,73.1,43.1,29.93,WNW,302,0.0,0.0,34,0.00,,,0.00,Wunderground v.1.15,2013-05-08 01:02:00,
2013-05-07 20:07:00,72.8,42.8,29.93,WNW,302,0.0,0.0,34,0.00,,,0.00,Wunderground v.1.15,2013-05-08 01:07:00,
2013-05-07 20:12:00,72.4,43.2,29.93,WNW,302,0.0,0.0,35,0.00,,,0.00,Wunderground v.1.15,2013-05-08 01:12:00,
2013-05-07 20:18:00,71.7,44.0,29.93,WNW,302,0.0,0.0,37,0.00,,,0.00,Wunderground v.1.15,2013-05-08 01:18:00,
2013-05-07 20:23:00,71.1,44.2,29.94,WNW,302,0.0,0.0,38,0.00,,,0.00,Wunderground v.1.15,2013-05-08 01:23:00,
2013-05-07 20:29:00,70.4,44.9,29.94,WNW,302,0.0,0.0,40,0.00,,,0.00,Wunderground v.1.15,2013-05-08 01:29:00,
2013-05-07 20:34:00,69.9,44.5,29.94,WNW,302,0.0,0.0,40,0.00,,,0.00,Wunderground v.1.15,2013-05-08 01:34:00,
2013-05-07 20:40:00,69.4,45.3,29.94,WNW,302,0.0,0.0,42,0.00,,,0.00,Wunderground v.1.15,2013-05-08 01:40:00,
2013-05-07 20:45:00,68.9,46.7,29.94,WNW,302,0.0,0.0,45,0.00,,,0.00,Wunderground v.1.15,2013-05-08 01:45:00,
2013-05-07 20:51:00,68.3,45.5,29.94,WNW,302,0.0,0.0,44,0.00,,,0.00,Wunderground v.1.15,2013-05-08 01:51:00,
2013-05-07 20:57:00,67.7,45.0,29.93,WNW,302,0.0,0.0,44,0.00,,,0.00,Wunderground v.1.15,2013-05-08 01:57:00,
2013-05-07 21:02:00,67.2,45.7,29.93,WNW,302,0.0,0.0,46,0.00,,,0.00,Wunderground v.1.15,2013-05-08 02:02:00,
2013-05-07 21:08:00,66.7,46.9,29.94,WNW,302,0.0,0.0,49,0.00,,,0.00,Wunderground v.1.15,2013-05-08 02:08:00,
2013-05-07 21:14:00,66.1,47.4,29.94,WNW,302,0.0,0.0,51,0.00,,,0.00,Wunderground v.1.15,2013-05-08 02:14:00,
2013-05-07 21:20:00,65.4,48.8,29.94,WNW,302,0.0,0.0,55,0.00,,,0.00,Wunderground v.1.15,2013-05-08 02:20:00,
2013-05-07 21:26:00,64.8,48.2,29.94,WNW,302,0.0,0.0,55,0.00,,,0.00,Wunderground v.1.15,2013-05-08 02:26:00,
2013-05-07 21:31:00,64.2,47.7,29.95,WNW,302,0.0,0.0,55,0.00,,,0.00,Wunderground v.1.15,2013-05-08 02:31:00,
2013-05-07 21:37:00,63.6,47.6,29.95,WNW,302,0.0,0.0,56,0.00,,,0.00,Wunderground v.1.15,2013-05-08 02:37:00,
2013-05-07 21:42:00,63.1,48.1,29.95,WNW,302,0.0,0.0,58,0.00,,,0.00,Wunderground v.1.15,2013-05-08 02:42:00,
2013-05-07 21:48:00,62.5,48.4,29.95,WNW,302,0.0,0.0,60,0.00,,,0.00,Wunderground v.1.15,2013-05-08 02:48:00,
2013-05-07 21:53:00,62.0,48.8,29.95,WNW,302,0.0,0.0,62,0.00,,,0.00,Wunderground v.1.15,2013-05-08 02:53:00,
2013-05-07 21:59:00,61.6,48.0,29.95,WNW,302,0.0,0.0,61,0.00,,,0.00,Wunderground v.1.15,2013-05-08 02:59:00,
2013-05-07 22:05:00,61.3,48.2,29.95,WNW,302,0.0,0.0,62,0.00,,,0.00,Wunderground v.1.15,2013-05-08 03:05:00,
2013-05-07 22:10:00,61.0,47.9,29.95,WNW,302,0.0,0.0,62,0.00,,,0.00,Wunderground v.1.15,2013-05-08 03:10:00,
2013-05-07 22:16:00,60.9,47.8,29.95,WNW,302,0.0,0.0,62,0.00,,,0.00,Wunderground v.1.15,2013-05-08 03:16:00,
2013-05-07 22:21:00,60.8,47.7,29.95,WNW,302,0.0,0.0,62,0.00,,,0.00,Wunderground v.1.15,2013-05-08 03:21:00,
2013-05-07 22:27:00,60.4,48.2,29.96,WNW,302,0.0,0.0,64,0.00,,,0.00,Wunderground v.1.15,2013-05-08 03:27:00,
2013-05-07 22:32:00,59.9,48.1,29.95,WNW,302,0.0,0.0,65,0.00,,,0.00,Wunderground v.1.15,2013-05-08 03:32:00,
2013-05-07 22:38:00,59.6,47.4,29.95,WNW,302,0.0,0.0,64,0.00,,,0.00,Wunderground v.1.15,2013-05-08 03:38:00,
2013-05-07 22:43:00,59.3,47.9,29.95,WNW,302,0.0,0.0,66,0.00,,,0.00,Wunderground v.1.15,2013-05-08 03:43:00,
2013-05-07 22:49:00,58.6,48.5,29.95,WNW,302,0.0,1.0,69,0.00,,,0.00,Wunderground v.1.15,2013-05-08 03:49:00,
2013-05-07 22:54:00,58.0,47.9,29.96,WNW,302,0.0,0.0,69,0.00,,,0.00,Wunderground v.1.15,2013-05-08 03:54:00,
2013-05-07 23:02:00,58.0,47.9,29.95,WNW,302,0.0,0.0,69,0.00,,,0.00,Wunderground v.1.15,2013-05-08 04:02:00,
2013-05-07 23:05:00,58.1,47.6,29.95,WNW,302,0.0,0.0,68,0.00,,,0.00,Wunderground v.1.15,2013-05-08 04:05:00,
2013-05-07 23:06:00,58.2,47.7,29.95,WNW,302,0.0,0.0,68,0.00,,,0.00,Wunderground v.1.15,2013-05-08 04:06:00,
2013-05-07 23:11:00,58.4,47.5,29.95,WNW,302,0.0,0.0,67,0.00,,,0.00,Wunderground v.1.15,2013-05-08 04:11:00,
2013-05-07 23:17:00,58.3,47.4,29.95,WNW,302,0.0,0.0,67,0.00,,,0.00,Wunderground v.1.15,2013-05-08 04:17:00,
2013-05-07 23:22:00,58.1,47.2,29.95,WNW,302,0.0,0.0,67,0.00,,,0.00,Wunderground v.1.15,2013-05-08 04:22:00,
2013-05-07 23:28:00,57.9,47.0,29.95,WNW,302,0.0,0.0,67,0.00,,,0.00,Wunderground v.1.15,2013-05-08 04:28:00,
2013-05-07 23:33:00,57.7,47.6,29.95,WNW,302,0.0,0.0,69,0.00,,,0.00,Wunderground v.1.15,2013-05-08 04:33:00,
2013-05-07 23:39:00,57.5,47.8,29.95,WNW,302,0.0,0.0,70,0.00,,,0.00,Wunderground v.1.15,2013-05-08 04:39:00,
2013-05-07 23:44:00,57.1,47.8,29.95,WNW,302,0.0,0.0,71,0.00,,,0.00,Wunderground v.1.15,2013-05-08 04:44:00,
2013-05-07 23:50:00,56.8,47.9,29.95,WNW,302,0.0,0.0,72,0.00,,,0.00,Wunderground v.1.15,2013-05-08 04:50:00,
2013-05-07 23:55:00,56.6,48.4,29.95,WNW,302,0.0,0.0,74,0.00,,,0.00,Wunderground v.1.15,2013-05-08 04:55:00,